TimeCDT,TemperatureF,Dew PointF,Humidity,Sea Level PressureIn,VisibilityMPH,Wind Direction,Wind SpeedMPH,Gust SpeedMPH,PrecipitationIn,Events,Conditions,WindDirDegrees,DateUTC
12:15 AM,77.0,66.2,69,30.11,10.0,North,-9999.0,-,N/A,,Clear,0,2013-09-16 05:15:00
12:35 AM,75.2,66.2,73,30.11,10.0,North,-9999.0,-,N/A,,Clear,0,2013-09-16 05:35:00
12:55 AM,73.4,66.2,78,30.11,10.0,North,-9999.0,-,N/A,,Clear,0,2013-09-16 05:55:00
1:15 AM,73.4,64.4,73,30.11,10.0,North,-9999.0,-,N/A,,Clear,0,2013-09-16 06:15:00
1:35 AM,73.4,64.4,73,30.11,10.0,North,-9999.0,-,N/A,,Clear,0,2013-09-16 06:35:00
1:55 AM,73.4,64.4,73,30.11,10.0,North,-9999.0,-,N/A,,Clear,0,2013-09-16 06:55:00
2:15 AM,73.4,64.4,73,30.11,10.0,North,-9999.0,-,N/A,,Clear,0,2013-09-16 07:15:00
2:35 AM,71.6,64.4,78,30.11,10.0,North,-9999.0,-,N/A,,Clear,0,2013-09-16 07:35:00
2:55 AM,71.6,64.4,78,30.11,10.0,North,-9999.0,-,N/A,,Clear,0,2013-09-16 07:55:00
3:15 AM,71.6,64.4,78,30.11,10.0,North,-9999.0,-,N/A,,Clear,0,2013-09-16 08:15:00
3:35 AM,71.6,64.4,78,30.10,10.0,North,-9999.0,-,N/A,,Clear,0,2013-09-16 08:35:00
3:55 AM,71.6,64.4,78,30.10,10.0,North,-9999.0,-,N/A,,Clear,0,2013-09-16 08:55:00
4:15 AM,71.6,64.4,78,30.10,10.0,North,-9999.0,-,N/A,,Clear,0,2013-09-16 09:15:00
4:35 AM,71.6,64.4,78,30.10,10.0,North,-9999.0,-,N/A,,Clear,0,2013-09-16 09:35:00
4:55 AM,71.6,64.4,78,30.10,10.0,North,-9999.0,-,N/A,,Clear,0,2013-09-16 09:55:00
5:15 AM,71.6,64.4,78,30.10,10.0,North,-9999.0,-,N/A,,Clear,0,2013-09-16 10:15:00
5:35 AM,71.6,64.4,78,30.10,10.0,North,-9999.0,-,N/A,,Clear,0,2013-09-16 10:35:00
5:55 AM,71.6,64.4,78,30.11,10.0,North,-9999.0,-,N/A,,Clear,0,2013-09-16 10:55:00
6:15 AM,71.6,62.6,73,30.12,10.0,North,-9999.0,-,N/A,,Clear,0,2013-09-16 11:15:00
6:35 AM,69.8,62.6,78,30.12,10.0,North,-9999.0,-,N/A,,Clear,0,2013-09-16 11:35:00
6:55 AM,69.8,62.6,78,30.12,10.0,North,-9999.0,-,N/A,,Clear,0,2013-09-16 11:55:00
7:15 AM,69.8,62.6,78,30.13,10.0,North,-9999.0,-,N/A,,Clear,0,2013-09-16 12:15:00
7:35 AM,69.8,62.6,78,30.14,10.0,North,-9999.0,-,N/A,,Clear,0,2013-09-16 12:35:00
7:55 AM,69.8,62.6,78,30.15,10.0,North,-9999.0,-,N/A,,Clear,0,2013-09-16 12:55:00
8:15 AM,69.8,62.6,78,30.15,10.0,North,-9999.0,-,N/A,,Clear,0,2013-09-16 13:15:00
8:35 AM,73.4,64.4,73,30.16,10.0,North,-9999.0,-,N/A,,Clear,0,2013-09-16 13:35:00
8:55 AM,73.4,64.4,73,30.16,10.0,North,-9999.0,-,N/A,,Clear,0,2013-09-16 13:55:00
9:15 AM,73.4,66.2,78,30.16,10.0,North,-9999.0,-,N/A,,Clear,0,2013-09-16 14:15:00
9:35 AM,77.0,64.4,65,30.16,10.0,North,-9999.0,-,N/A,,Clear,0,2013-09-16 14:35:00
9:55 AM,78.8,64.4,61,30.16,10.0,North,-9999.0,-,N/A,,Clear,0,2013-09-16 14:55:00
10:15 AM,78.8,64.4,61,30.16,10.0,North,-9999.0,-,N/A,,Scattered Clouds,0,2013-09-16 15:15:00
10:35 AM,80.6,64.4,58,30.16,10.0,North,-9999.0,-,N/A,,Scattered Clouds,0,2013-09-16 15:35:00
10:55 AM,78.8,64.4,61,30.17,10.0,North,-9999.0,-,N/A,,Scattered Clouds,0,2013-09-16 15:55:00
11:15 AM,80.6,62.6,54,30.17,10.0,North,-9999.0,-,N/A,,Scattered Clouds,0,2013-09-16 16:15:00
11:35 AM,80.6,62.6,54,30.17,10.0,North,-9999.0,-,N/A,,Clear,0,2013-09-16 16:35:00
11:55 AM,82.4,62.6,51,30.16,10.0,North,-9999.0,-,N/A,,Clear,0,2013-09-16 16:55:00
12:15 PM,86.0,62.6,45,30.16,10.0,North,-9999.0,-,N/A,,Clear,0,2013-09-16 17:15:00
12:35 PM,86.0,60.8,43,30.14,10.0,North,-9999.0,-,N/A,,Scattered Clouds,0,2013-09-16 17:35:00
12:55 PM,86.0,59.0,40,30.14,10.0,North,-9999.0,-,N/A,,Scattered Clouds,0,2013-09-16 17:55:00
1:15 PM,87.8,57.2,35,30.13,10.0,North,-9999.0,-,N/A,,Clear,0,2013-09-16 18:15:00
1:35 PM,87.8,55.4,33,30.12,10.0,North,-9999.0,-,N/A,,Clear,0,2013-09-16 18:35:00
1:55 PM,86.0,57.2,37,30.12,10.0,North,-9999.0,-,N/A,,Clear,0,2013-09-16 18:55:00
2:15 PM,86.0,55.4,35,30.11,10.0,North,-9999.0,-,N/A,,Clear,0,2013-09-16 19:15:00
2:35 PM,87.8,55.4,33,30.10,10.0,North,-9999.0,-,N/A,,Clear,0,2013-09-16 19:35:00
2:55 PM,87.8,53.6,31,30.09,10.0,North,-9999.0,-,N/A,,Clear,0,2013-09-16 19:55:00
3:15 PM,87.8,53.6,31,30.08,10.0,North,-9999.0,-,N/A,,Clear,0,2013-09-16 20:15:00
3:35 PM,87.8,53.6,31,30.07,10.0,North,-9999.0,-,N/A,,Clear,0,2013-09-16 20:35:00
3:55 PM,87.8,55.4,33,30.06,10.0,North,-9999.0,-,N/A,,Clear,0,2013-09-16 20:55:00
4:15 PM,87.8,55.4,33,30.06,10.0,North,-9999.0,-,N/A,,Clear,0,2013-09-16 21:15:00
4:35 PM,87.8,55.4,33,30.05,10.0,North,-9999.0,-,N/A,,Clear,0,2013-09-16 21:35:00
4:55 PM,87.8,55.4,33,30.05,10.0,North,-9999.0,-,N/A,,Clear,0,2013-09-16 21:55:00
5:15 PM,87.8,53.6,31,30.05,10.0,North,-9999.0,-,N/A,,Clear,0,2013-09-16 22:15:00
5:35 PM,87.8,53.6,31,30.05,10.0,North,-9999.0,-,N/A,,Clear,0,2013-09-16 22:35:00
5:55 PM,87.8,53.6,31,30.05,10.0,North,-9999.0,-,N/A,,Clear,0,2013-09-16 22:55:00
6:15 PM,87.8,51.8,29,30.05,10.0,North,-9999.0,-,N/A,,Clear,0,2013-09-16 23:15:00
6:35 PM,80.6,62.6,54,30.07,10.0,North,-9999.0,-,N/A,,Clear,0,2013-09-16 23:35:00
6:55 PM,80.6,62.6,54,30.08,10.0,North,-9999.0,-,N/A,,Clear,0,2013-09-16 23:55:00
7:15 PM,78.8,60.8,54,30.09,10.0,North,-9999.0,-,N/A,,Clear,0,2013-09-17 00:15:00
7:35 PM,77.0,60.8,57,30.10,10.0,North,-9999.0,-,N/A,,Clear,0,2013-09-17 00:35:00
7:55 PM,75.2,62.6,65,30.10,10.0,North,-9999.0,-,N/A,,Clear,0,2013-09-17 00:55:00
8:15 PM,73.4,62.6,69,30.11,10.0,North,-9999.0,-,N/A,,Clear,0,2013-09-17 01:15:00
8:35 PM,73.4,62.6,69,30.11,10.0,North,-9999.0,-,N/A,,Clear,0,2013-09-17 01:35:00
8:55 PM,73.4,62.6,69,30.12,10.0,North,-9999.0,-,N/A,,Clear,0,2013-09-17 01:55:00
9:15 PM,73.4,62.6,69,30.13,10.0,North,-9999.0,-,N/A,,Clear,0,2013-09-17 02:15:00
9:35 PM,73.4,62.6,69,30.14,10.0,North,-9999.0,-,N/A,,Clear,0,2013-09-17 02:35:00
9:55 PM,73.4,62.6,69,30.15,10.0,North,-9999.0,-,N/A,,Clear,0,2013-09-17 02:55:00
10:15 PM,73.4,62.6,69,30.15,10.0,North,-9999.0,-,N/A,,Clear,0,2013-09-17 03:15:00
10:35 PM,73.4,62.6,69,30.16,10.0,North,-9999.0,-,N/A,,Clear,0,2013-09-17 03:35:00
10:55 PM,73.4,62.6,69,30.16,10.0,North,-9999.0,-,N/A,,Clear,0,2013-09-17 03:55:00
11:15 PM,73.4,62.6,69,30.16,10.0,North,-9999.0,-,N/A,,Clear,0,2013-09-17 04:15:00
11:35 PM,71.6,64.4,78,30.17,10.0,North,-9999.0,-,N/A,,Clear,0,2013-09-17 04:35:00
11:55 PM,73.4,64.4,73,30.16,10.0,North,-9999.0,-,N/A,,Clear,0,2013-09-17 04:55:00